Theta_e
332 332 331 331 330 329 328 327 325 324 324 322 320 319 317 315 314 312 312 311 311 311 310 310 309 309 309 309 308 307 306 305 304 303 302 302 302 302 304 306 307 308 310 309 307 307 308 306 303 303 302 301 301 302 302 300 301 309 315 316 315 316 316
332 332 331 330 329 328 327 327 324 321 320 319 316 315 313 312 312 311 311 310 310 309 309 309 308 308 307 306 304 303 302 302 301 301 300 300 300 301 303 306 308 309 309 306 305 308 309 308 307 305 303 300 300 301 301 299 299 304 310 312 313 314 311
332 331 330 329 327 327 325 325 322 317 315 314 312 312 311 311 310 310 310 309 309 308 307 307 306 305 304 302 301 300 300 300 300 299 299 299 299 301 305 308 309 310 309 306 306 309 309 308 307 304 300 299 300 300 299 299 299 299 303 307 308 307 305
330 329 328 327 326 325 323 321 318 314 312 312 311 310 310 310 309 309 308 308 307 305 304 303 302 302 301 300 300 299 299 299 299 299 298 299 299 302 306 308 309 310 308 305 305 306 307 304 304 303 299 298 299 298 298 298 298 299 300 300 299 299 299
328 327 326 324 323 322 321 318 314 312 311 311 310 309 308 308 307 307 306 305 303 302 301 300 300 300 299 299 299 299 299 299 299 298 298 298 298 302 306 307 307 306 303 302 303 304 305 304 303 302 299 298 298 297 297 298 297 299 299 298 297 297 298
326 325 324 323 321 321 320 316 311 310 310 309 308 307 306 306 305 304 303 301 300 300 299 299 299 299 298 298 298 298 298 298 298 298 298 298 298 301 305 305 303 300 301 303 304 305 305 303 301 300 299 298 299 297 297 297 297 298 298 298 297 298 298
324 323 322 322 321 320 319 316 311 309 309 308 307 306 304 303 302 300 300 300 299 299 299 299 299 298 298 298 298 298 297 297 297 297 297 298 299 300 300 299 298 299 302 303 303 304 303 300 299 300 300 299 298 297 297 297 297 297 298 298 297 298 298
323 323 322 321 320 319 319 316 310 308 307 305 304 303 301 300 299 299 299 299 299 299 298 298 298 298 297 297 297 297 297 297 297 297 297 298 301 299 297 296 297 300 302 300 300 301 299 297 297 299 300 300 298 297 297 297 297 297 297 298 298 298 298
322 321 321 320 319 319 317 313 308 306 305 302 301 300 299 299 299 299 299 299 298 298 298 298 297 297 297 297 298 299 299 298 296 296 297 298 301 302 299 297 296 298 299 297 297 298 297 297 296 297 298 298 298 298 297 297 297 297 298 298 298 298 298
320 320 319 318 317 316 313 309 306 304 301 300 299 298 298 298 298 298 298 298 298 298 298 297 297 297 297 298 299 299 299 299 297 296 296 298 303 304 301 297 296 296 297 296 296 296 296 296 296 296 296 296 297 297 298 298 297 297 298 298 298 298 298
318 317 317 316 314 312 309 305 303 301 299 298 298 297 298 298 298 298 298 297 297 297 297 297 297 297 297 298 299 299 299 299 297 296 296 297 301 302 300 297 296 296 296 296 296 296 296 296 296 296 296 296 296 297 297 298 298 297 298 298 298 298 298
315 314 313 312 311 308 305 302 300 299 298 297 297 297 297 297 297 297 297 297 297 297 297 297 296 297 297 297 298 298 298 298 298 297 297 298 299 299 299 298 297 296 296 296 296 296 296 296 296 296 296 296 296 296 297 297 298 298 297 298 298 298 298
312 311 310 309 307 305 302 300 299 298 297 297 297 297 297 297 297 297 297 297 297 297 297 297 297 297 296 296 297 297 297 299 300 299 298 300 300 299 299 299 297 296 295 295 295 296 295 296 296 296 296 296 296 296 296 297 297 298 297 297 298 298 297
311 309 307 305 303 301 300 299 298 297 297 297 297 297 297 297 297 297 297 297 297 297 297 297 297 296 296 297 297 298 300 302 303 301 299 299 300 299 298 298 296 295 295 295 295 295 295 295 295 296 296 296 296 296 296 296 296 296 297 296 296 297 297
310 308 305 303 301 300 299 298 297 297 296 297 297 297 297 297 297 297 297 297 296 296 296 296 296 296 297 298 299 300 302 303 303 302 299 298 298 298 297 296 295 295 295 295 295 295 295 295 295 295 296 296 296 296 296 296 296 296 297 297 296 296 297
307 305 302 300 299 298 298 297 297 296 296 297 297 297 297 297 296 296 296 296 296 296 296 296 296 296 297 298 300 302 302 301 301 301 300 298 297 296 295 295 295 295 295 295 295 294 295 295 295 295 295 296 296 296 296 295 296 296 296 296 296 296 296
304 302 300 298 298 297 296 296 296 297 297 297 297 296 296 296 296 296 296 296 296 295 295 295 295 296 297 297 300 303 303 301 300 301 300 298 296 295 295 295 295 295 295 295 294 294 294 295 295 294 295 295 296 295 295 295 296 296 296 296 296 296 296
301 299 298 298 297 296 296 296 296 297 296 296 296 296 296 296 296 296 296 295 295 295 295 295 295 296 297 298 300 303 303 301 300 300 299 297 296 295 295 295 296 296 295 295 294 294 294 294 294 294 295 295 295 295 295 295 295 296 296 296 295 296 296
299 298 297 297 297 296 296 296 296 296 296 296 296 296 295 295 295 295 295 295 295 295 295 295 295 296 297 298 299 302 303 301 299 300 299 297 298 297 296 296 296 295 295 294 294 294 294 294 294 294 294 295 295 295 295 295 295 295 295 295 295 295 295
298 297 297 297 296 296 296 296 296 296 296 296 295 295 295 295 295 295 295 295 295 295 295 295 295 296 297 298 299 301 302 301 299 300 300 299 299 298 297 297 296 295 294 294 293 294 294 294 294 293 294 295 295 295 295 295 295 295 295 295 295 295 295
297 297 297 296 296 297 296 296 296 296 295 295 295 295 295 295 295 295 295 295 295 295 295 295 295 296 297 297 298 299 301 301 299 300 300 300 300 299 298 298 296 294 294 294 293 293 293 293 293 293 294 294 295 295 295 295 295 295 295 295 295 295 295
297 297 297 297 297 297 296 297 297 296 295 295 296 295 295 295 295 295 295 295 295 295 295 295 295 295 296 296 297 298 299 300 300 300 300 300 300 299 298 298 296 294 294 293 293 293 293 293 293 293 294 294 295 295 295 295 295 295 295 295 295 295 295
297 297 297 297 297 296 296 297 297 296 296 296 296 295 294 295 295 295 295 295 295 295 294 294 294 295 295 296 296 296 298 299 299 299 300 300 300 299 299 298 297 295 293 293 293 293 293 293 293 294 294 294 295 295 295 295 295 296 296 295 295 295 295
297 297 297 297 296 296 296 296 296 296 296 296 295 294 294 295 294 295 294 294 295 295 294 294 294 294 295 296 296 297 298 299 299 299 299 299 300 299 299 299 298 295 293 293 293 293 293 293 293 294 294 294 295 295 295 295 295 295 295 295 295 295 295
297 297 296 296 295 295 295 295 295 295 296 295 295 294 294 294 294 294 294 294 294 294 294 294 294 294 294 295 297 298 299 300 300 299 298 298 299 299 298 299 298 295 294 294 293 292 293 293 294 294 294 294 294 295 295 295 295 295 295 295 295 295 295
296 296 296 295 295 295 295 295 295 295 295 295 295 294 294 294 294 294 294 294 294 294 294 294 294 294 294 294 296 298 299 299 300 300 298 298 299 299 299 299 297 295 295 294 292 292 293 293 294 294 294 294 294 295 295 295 295 295 295 295 295 295 295
296 295 295 295 295 295 295 295 295 295 295 295 295 295 294 293 294 294 294 294 294 294 294 294 293 293 293 293 294 296 297 298 299 300 298 297 298 299 299 298 297 296 295 294 293 293 293 293 294 294 294 294 294 295 295 295 295 295 295 295 295 294 294
295 295 294 294 295 295 295 295 295 294 294 294 295 295 294 294 293 293 293 294 294 294 294 293 293 293 293 293 293 294 295 296 298 299 298 297 298 298 298 297 296 295 294 293 293 293 294 294 294 294 294 294 294 294 294 295 295 295 295 294 294 294 294
295 294 294 294 294 294 294 294 294 294 294 294 294 294 294 294 293 293 293 294 294 294 293 293 293 293 292 292 292 293 294 295 296 298 297 297 297 297 297 296 295 294 294 293 293 294 294 294 294 294 294 293 293 294 294 294 295 295 294 294 294 294 294
295 294 294 294 294 294 294 294 294 294 294 294 293 294 294 293 293 293 293 293 293 293 293 293 293 293 292 292 292 293 293 294 295 296 297 297 296 297 297 296 294 293 294 294 294 294 294 294 294 293 293 293 293 293 294 294 294 294 294 294 294 295 295
295 295 295 295 295 294 294 294 294 294 294 294 293 293 293 293 293 293 293 293 293 293 293 293 293 293 293 293 292 292 292 292 293 294 295 296 296 296 296 295 293 293 294 294 294 294 294 294 293 293 292 292 292 293 293 294 294 294 294 294 294 295 295
296 296 296 295 295 295 295 295 295 295 295 294 293 293 294 294 294 294 294 294 293 293 293 292 293 293 293 293 292 292 292 292 292 292 293 294 294 294 294 294 293 294 294 294 294 294 294 293 293 292 292 292 292 292 292 293 293 293 293 294 294 295 295
298 297 296 295 295 295 295 296 297 297 297 296 295 295 295 296 296 296 296 295 295 294 293 293 293 293 293 293 293 292 292 292 292 292 292 293 293 293 294 294 294 294 294 294 294 294 293 292 292 291 291 291 291 291 292 292 293 293 293 294 294 295 295
299 297 296 295 296 296 298 299 300 300 299 297 296 297 297 297 298 298 298 298 297 297 295 293 293 293 293 293 292 293 293 292 293 293 293 293 293 293 294 294 294 294 295 295 294 293 292 292 292 292 291 291 291 291 291 292 292 293 293 294 294 295 295
299 297 296 296 296 298 300 301 301 301 301 299 298 299 299 299 299 299 300 299 299 299 297 294 293 293 293 293 293 293 293 293 293 293 293 293 293 293 294 294 295 295 295 295 294 293 292 291 291 291 291 290 290 290 291 291 291 293 294 294 294 295 295
299 298 296 296 297 299 301 302 301 301 300 298 299 300 300 300 300 300 300 300 300 300 298 295 293 293 293 293 293 293 293 293 293 293 293 293 293 294 295 295 295 295 295 295 293 292 292 291 291 291 290 290 290 290 291 291 292 293 294 294 294 295 295
299 298 296 296 297 300 301 300 299 299 299 299 300 300 300 300 300 300 300 300 300 300 298 296 294 293 293 293 293 293 293 293 293 293 293 293 294 294 295 295 295 295 295 294 293 292 291 291 291 291 290 290 290 290 291 292 293 294 294 294 294 294 295
Wind_Speed
7 6 5 5 7 9 11 11 7 5 3 4 5 6 5 5 6 5 5 3 2 3 2 2 2 3 5 6 6 7 8 9 9 9 10 10 9 9 9 7 7 7 7 10 13 14 16 21 24 20 17 18 18 18 19 18 14 9 8 12 16 17 17
7 6 5 6 8 10 12 11 5 3 4 6 6 6 6 6 5 4 3 3 3 3 2 2 2 4 4 5 5 6 7 8 9 9 9 10 11 11 11 11 11 11 12 13 16 16 16 18 23 25 25 25 23 22 23 21 17 12 10 12 16 17 17
6 5 6 7 9 11 12 10 4 6 7 8 7 6 6 5 4 3 3 3 3 3 2 2 2 3 4 4 5 5 6 7 7 8 8 9 10 11 12 12 13 14 15 16 17 17 16 16 18 23 26 28 28 27 26 25 22 18 12 11 15 16 16
5 6 6 7 8 8 7 5 6 9 10 9 8 7 6 5 4 4 3 3 3 3 2 2 3 3 4 5 5 6 6 6 7 8 8 9 10 11 10 11 12 13 14 15 16 16 16 18 19 22 24 26 27 28 27 26 24 20 16 15 17 17 18
4 5 6 5 5 5 4 5 9 11 10 9 9 7 6 5 4 3 3 2 2 2 2 2 3 4 5 5 5 6 6 7 8 8 9 10 11 10 9 10 12 11 12 14 16 16 17 18 19 22 24 25 26 27 26 26 25 23 20 21 22 22 23
6 7 7 7 7 6 5 7 11 11 10 9 8 7 7 6 4 3 3 3 3 3 3 3 4 5 5 5 5 5 7 8 8 9 10 11 11 10 8 10 12 12 13 15 16 17 17 18 19 22 23 24 26 28 28 27 28 26 24 25 27 27 27
9 10 11 11 10 9 8 8 10 11 10 9 8 7 7 5 4 4 4 4 5 5 5 4 5 5 5 5 5 6 8 8 8 9 10 10 10 10 10 11 13 13 14 15 14 15 16 18 20 20 23 25 27 28 29 29 30 30 29 29 29 29 30
12 13 15 15 14 13 12 10 10 11 10 9 8 7 6 6 5 6 6 6 6 6 5 5 5 5 6 6 6 7 8 8 7 8 9 9 10 12 12 12 12 12 13 13 13 15 17 19 19 18 21 26 29 30 31 31 30 30 31 32 30 29 30
14 16 17 17 17 16 13 11 12 12 10 9 8 7 6 6 6 7 7 7 7 6 6 6 5 6 6 6 6 6 7 7 7 8 9 10 11 12 12 12 12 13 14 14 15 18 18 18 18 18 20 22 25 29 33 34 33 31 31 33 32 30 31
17 17 18 18 17 15 12 12 13 12 10 10 9 8 8 7 7 8 8 8 7 6 6 6 6 6 6 6 6 6 7 7 8 8 8 9 11 11 11 12 13 14 14 15 16 18 18 18 19 21 24 25 24 25 27 31 34 34 33 34 34 34 33
17 17 17 16 14 13 14 14 13 12 11 10 10 9 9 8 9 9 9 9 7 7 7 7 7 6 6 6 6 6 7 7 8 9 9 9 10 10 11 13 14 15 16 16 15 16 18 21 23 25 28 28 26 24 23 25 28 32 34 33 33 34 34
14 16 16 15 14 15 16 15 14 13 12 11 11 10 10 9 9 9 9 9 8 7 8 7 8 7 6 6 6 6 7 7 8 10 11 11 10 10 12 15 17 18 19 17 15 17 22 24 26 28 29 29 27 25 22 21 25 29 31 32 32 32 33
13 14 15 16 17 17 16 15 13 12 12 12 12 11 11 10 10 10 9 9 9 8 8 8 8 8 7 6 7 7 8 8 9 11 11 12 12 12 15 17 18 19 19 18 19 22 25 27 29 30 29 29 28 26 24 22 24 28 29 29 30 32 34
15 15 17 18 18 17 15 14 13 13 13 12 12 11 11 11 10 10 9 9 8 8 7 7 7 7 8 8 8 9 10 10 10 10 10 11 11 13 16 18 18 18 18 20 23 26 28 29 30 30 29 29 28 26 25 23 25 28 29 28 31 33 34
17 17 19 18 17 16 15 14 14 14 14 14 13 12 12 12 11 10 10 9 8 7 6 6 5 6 8 8 9 10 10 10 9 9 11 12 12 14 17 17 17 18 21 23 26 28 29 30 30 30 30 30 28 25 24 25 27 28 28 30 33 34 34
19 19 19 18 17 16 15 15 15 15 15 14 13 12 11 11 11 10 9 9 8 8 6 5 4 4 6 9 10 10 9 9 8 9 11 13 15 16 17 17 18 20 24 26 27 28 29 29 30 31 31 28 26 25 25 27 28 28 29 32 34 34 34
20 19 19 18 17 17 16 16 15 15 15 15 13 12 11 10 10 9 9 8 8 7 7 6 4 3 5 8 11 11 9 9 9 10 12 13 16 19 19 19 21 23 25 26 26 27 29 30 31 32 31 27 24 25 27 28 29 29 30 33 35 34 35
21 20 19 19 18 18 18 17 17 16 16 15 14 13 11 10 10 9 9 8 7 7 7 7 5 3 4 7 10 11 9 8 9 9 12 13 16 20 22 21 23 23 24 25 26 27 29 30 31 32 30 26 24 25 28 29 30 30 31 34 36 36 36
21 20 20 20 19 19 18 18 18 17 15 14 13 12 11 10 10 9 9 8 7 7 7 7 6 5 6 7 10 11 9 8 8 9 12 16 17 20 21 22 23 23 23 25 26 27 30 30 31 32 30 26 23 25 28 29 31 32 32 34 36 38 38
22 21 21 21 20 20 19 18 18 16 14 13 13 12 11 10 10 9 8 8 8 7 7 7 7 6 7 7 8 10 9 9 10 11 13 16 17 18 19 20 23 23 22 25 26 27 29 30 32 32 30 25 24 25 27 28 31 33 35 36 37 39 40
22 22 22 22 21 21 21 19 18 17 15 14 14 13 11 10 10 9 8 8 7 7 7 7 7 7 7 7 7 9 10 11 12 12 12 12 12 15 16 18 23 24 23 26 27 27 28 30 32 33 30 25 23 24 26 28 31 34 37 38 39 40 41
23 23 23 22 22 22 21 20 19 17 16 15 15 14 12 11 10 9 8 8 7 7 8 8 9 8 7 7 8 8 10 11 11 11 11 8 8 13 15 17 22 25 25 26 27 27 28 28 30 32 29 25 23 23 26 28 31 34 37 38 41 42 43
24 23 23 22 22 21 21 20 19 18 16 15 15 14 12 11 11 9 8 8 8 8 9 10 10 9 8 8 8 9 10 11 11 10 9 7 9 13 16 19 23 25 26 27 27 28 28 27 28 28 26 25 24 24 27 30 31 33 35 39 42 43 44
25 24 23 22 21 21 20 19 18 18 15 14 15 14 11 11 11 10 9 8 8 9 10 11 11 10 9 8 9 10 11 11 11 11 9 8 9 13 17 20 23 25 26 28 28 28 28 27 27 25 23 24 24 24 27 30 31 33 35 38 42 43 44
25 25 23 22 21 20 20 19 18 17 16 15 16 15 12 11 11 10 9 9 10 10 11 11 11 10 9 9 9 10 10 10 10 11 12 9 9 13 15 19 23 25 26 28 29 28 28 27 27 25 23 24 24 25 26 28 30 32 35 38 41 43 44
25 24 23 22 22 21 20 19 18 17 16 14 15 15 13 12 11 11 10 10 11 11 12 12 11 11 10 9 8 7 7 9 8 7 10 10 10 12 14 18 22 24 25 27 28 28 27 27 27 28 27 27 26 26 27 28 29 31 34 38 41 43 44
25 24 23 22 22 21 20 19 18 17 15 14 14 15 15 13 12 12 11 11 11 11 12 12 12 12 12 10 8 6 5 7 6 4 7 8 8 11 14 18 20 22 24 26 26 25 26 28 29 30 31 31 30 28 28 29 30 32 34 37 39 42 43
25 25 24 24 23 22 21 20 19 18 16 14 13 13 15 14 13 13 12 11 11 11 13 13 13 13 13 12 11 8 6 6 5 4 5 5 6 9 13 17 18 21 23 23 23 24 27 29 31 32 33 33 32 30 29 29 31 34 35 37 39 41 42
26 26 26 25 24 23 22 21 20 18 17 15 13 12 14 14 13 13 13 12 12 13 13 14 14 14 14 14 13 11 9 7 5 3 4 4 6 9 13 16 17 19 20 20 22 25 28 30 31 32 34 34 34 32 30 29 31 33 36 38 40 41 42
27 28 27 26 25 24 23 21 20 19 17 16 15 13 14 15 14 13 13 13 13 14 14 14 15 15 15 15 14 13 12 9 6 3 3 3 5 8 11 13 15 18 20 21 24 27 28 30 32 33 34 35 34 34 33 32 32 34 37 39 40 41 43
29 29 27 26 26 24 23 22 20 19 18 17 16 15 15 16 15 14 14 14 14 15 15 15 15 16 16 16 15 14 13 12 8 5 3 4 5 7 9 10 12 16 20 23 25 27 29 30 31 33 34 34 35 36 36 34 34 36 39 40 41 42 44
29 28 27 26 25 24 23 22 20 19 18 17 17 16 15 15 15 14 14 15 16 16 16 16 16 16 17 16 16 15 14 13 11 10 7 5 6 8 10 10 12 16 20 23 25 27 28 29 31 32 33 34 36 37 36 34 35 38 41 42 42 44 46
28 27 26 26 25 24 22 20 18 17 16 16 16 15 14 14 13 13 13 14 16 16 16 16 16 16 16 16 15 15 14 14 14 14 12 10 10 12 13 14 14 17 21 23 26 28 28 28 30 32 33 34 35 35 33 33 36 38 40 42 43 45 48
27 26 26 26 26 24 22 19 16 14 13 13 13 13 13 12 11 11 12 13 14 14 15 15 15 15 15 15 14 14 15 16 16 16 14 13 14 15 16 16 18 20 22 23 26 28 28 28 30 31 32 33 32 31 31 33 36 37 38 41 43 46 49
26 26 26 26 26 25 21 17 16 15 13 11 11 11 10 10 10 9 9 10 12 12 12 13 13 13 13 13 13 14 15 16 16 15 14 13 14 15 17 18 19 21 21 22 26 28 27 28 30 32 32 32 30 30 31 34 36 36 38 41 44 47 50
26 25 26 26 27 25 23 20 18 17 15 12 11 11 9 8 8 8 7 7 8 9 9 10 11 12 12 12 12 13 14 15 15 14 13 13 14 15 16 17 18 21 22 23 26 27 26 27 30 32 33 32 31 32 34 35 35 35 38 42 45 48 50
26 26 26 26 26 25 24 22 20 18 16 14 12 11 10 8 6 5 4 4 4 5 6 8 9 10 11 11 11 12 13 13 14 14 13 14 15 15 16 16 18 20 22 23 26 26 26 27 29 31 32 32 32 34 36 36 35 35 38 42 45 47 50
Wind_Direction
151 152 171 221 250 264 270 272 270 260 235 198 191 190 183 178 173 169 169 156 123 99 78 35 17 7 1 6 2 350 340 339 345 351 356 1 11 29 43 46 37 30 18 10 11 8 352 334 328 334 343 349 358 0 358 1 7 8 14 14 359 347 346
148 160 192 234 253 260 267 271 261 200 180 167 167 171 164 163 164 157 148 124 99 91 75 24 16 11 3 4 1 349 345 347 355 1 6 11 19 34 40 38 35 28 21 20 21 22 15 354 341 341 345 347 353 2 3 4 14 20 11 357 344 336 341
174 205 232 242 251 256 262 269 238 164 159 157 156 162 161 156 148 141 132 119 102 90 74 16 12 10 5 12 11 5 4 5 10 14 19 24 31 44 43 34 31 24 14 13 17 20 17 6 352 345 346 347 348 354 -0 3 10 16 12 353 338 333 335
213 230 236 239 247 249 249 244 190 162 156 155 154 154 154 145 135 131 123 116 98 87 74 9 16 25 30 33 27 25 28 25 28 30 31 34 42 51 44 33 29 19 10 9 11 13 11 5 359 352 350 350 347 349 355 359 4 10 10 359 350 345 341
215 217 214 214 222 229 219 187 169 161 158 156 152 147 142 135 132 130 120 114 106 99 90 45 42 47 49 48 39 38 41 36 36 35 33 38 49 55 42 29 27 21 18 22 20 18 16 10 4 357 353 352 349 349 352 355 358 5 6 360 356 355 349
196 193 181 175 189 215 212 179 165 160 158 153 149 146 141 137 137 134 126 122 116 104 97 78 67 65 64 59 51 52 52 44 38 35 37 42 48 54 40 23 28 32 32 33 29 24 16 8 5 360 355 354 350 349 352 354 355 359 1 359 357 355 350
183 176 172 178 192 211 214 193 172 160 154 151 150 148 144 144 140 130 122 118 110 102 98 91 82 83 80 70 65 65 60 51 43 39 43 46 46 48 37 27 36 43 39 36 29 21 13 6 5 1 356 354 351 350 352 354 355 356 355 356 356 353 349
183 181 183 189 196 208 215 201 172 155 151 150 148 145 144 143 135 125 117 111 105 103 102 99 97 96 91 85 79 75 67 56 49 46 49 47 42 41 37 35 42 42 35 31 23 19 16 11 7 4 2 357 352 351 351 352 356 356 353 351 352 353 348
186 188 192 197 203 210 207 184 159 151 151 150 146 143 141 136 129 123 115 109 105 107 110 109 107 103 99 99 93 83 72 59 53 52 53 52 45 36 32 36 38 33 28 24 20 21 21 18 15 14 15 11 0 354 351 351 353 355 353 350 348 350 349
190 193 196 199 201 199 181 162 154 153 153 150 145 140 136 132 127 122 116 113 112 115 118 116 114 110 108 105 95 85 75 60 57 56 53 58 52 34 28 35 35 32 27 21 22 26 25 25 26 23 21 19 12 2 352 347 349 350 350 350 347 345 347
193 193 193 192 187 172 157 154 156 155 153 148 143 139 134 132 129 125 122 120 121 126 127 124 120 115 109 103 93 84 77 62 59 59 54 60 56 31 24 33 34 33 29 24 27 30 26 25 25 22 19 17 12 6 355 341 341 347 347 347 347 345 345
189 183 181 177 168 156 154 156 158 156 152 146 143 139 137 137 134 132 131 129 132 137 133 129 123 114 107 101 92 83 78 67 58 56 52 53 48 26 23 30 30 30 28 29 32 28 24 25 22 19 16 13 9 4 357 342 334 341 344 342 345 348 347
173 167 164 159 154 153 155 158 158 155 151 147 145 144 143 142 139 137 135 135 138 138 133 129 122 114 106 99 93 85 77 67 55 49 49 51 41 23 25 28 27 27 27 29 31 26 24 24 20 17 12 9 8 2 357 349 333 334 341 341 342 347 348
164 158 154 152 153 156 158 159 157 154 152 149 146 147 147 142 139 136 134 132 130 128 127 125 121 118 111 100 92 83 73 66 53 42 47 51 39 24 27 28 25 25 27 29 28 24 22 20 16 13 9 5 6 3 359 356 345 338 340 342 341 342 343
164 158 154 155 158 159 160 160 158 156 153 150 149 152 150 144 140 136 131 127 123 118 114 115 122 124 115 102 88 78 73 70 56 39 41 45 34 26 28 27 24 25 28 29 26 21 18 16 12 10 7 3 2 4 4 3 357 346 338 340 342 341 340
159 156 155 158 159 159 160 158 157 157 154 152 154 156 152 144 139 134 130 126 121 118 113 112 122 121 112 103 90 76 64 64 58 40 38 40 35 31 30 28 25 25 27 25 21 18 15 12 10 7 4 2 1 4 8 8 2 352 342 341 343 342 341
157 157 158 159 158 157 157 156 157 157 154 155 159 156 147 138 135 133 130 125 120 119 115 108 112 107 100 98 93 82 61 51 53 42 38 42 38 32 31 29 25 22 22 20 16 15 13 10 9 5 1 2 4 6 10 11 5 356 347 344 344 344 343
159 160 160 159 159 158 157 156 157 156 156 161 159 151 142 136 138 136 130 125 118 115 111 106 110 102 87 91 95 91 70 45 51 47 41 46 40 30 27 27 22 17 15 14 12 11 11 8 5 2 360 1 4 8 12 12 7 0 353 348 346 346 345
162 162 161 160 160 159 158 158 159 159 162 163 154 145 142 140 141 136 128 123 115 110 106 103 106 100 90 92 93 92 78 45 50 55 43 41 35 24 24 24 16 9 8 9 9 8 8 6 2 0 359 358 2 8 10 9 5 0 355 350 348 347 346
164 163 163 162 161 160 158 158 159 160 161 158 149 144 145 143 138 133 126 121 114 109 104 100 101 99 95 92 90 95 89 57 50 55 43 34 25 15 20 20 8 2 5 7 9 7 4 2 -0 359 357 355 360 7 6 3 0 356 352 348 347 346 345
165 164 164 164 163 161 160 159 159 158 158 157 153 147 145 141 135 131 126 119 112 107 101 97 98 98 94 93 91 94 89 64 50 56 54 39 18 7 12 13 5 3 6 7 8 5 1 358 357 357 357 353 356 4 2 357 354 351 348 345 343 342 342
165 166 166 166 165 165 164 163 161 160 161 161 152 142 139 138 133 130 125 118 113 106 100 93 92 92 89 89 88 85 84 70 55 62 69 51 6 357 4 4 2 5 6 6 5 2 359 356 354 356 358 355 353 358 358 352 348 345 343 341 340 339 338
166 167 167 167 168 167 167 167 165 164 166 159 143 136 136 135 130 126 119 114 109 102 94 85 84 86 83 82 79 77 80 73 62 66 68 39 359 355 358 356 357 2 5 4 2 359 357 355 352 355 1 2 357 354 351 348 345 342 339 337 337 337 335
167 167 169 169 169 169 168 168 167 165 164 153 139 135 135 131 125 118 110 105 98 89 83 77 75 76 76 75 74 72 74 70 58 49 41 24 4 357 353 350 353 359 3 2 358 356 355 354 352 353 1 6 3 356 350 346 343 343 340 336 335 336 334
169 170 171 170 169 168 165 165 164 163 161 153 144 139 134 125 118 110 104 99 92 84 79 75 71 69 67 67 72 72 71 72 61 39 29 20 360 354 352 347 349 356 1 359 355 353 353 353 353 354 357 1 1 359 356 351 347 346 343 338 335 335 334
171 171 171 170 167 166 164 163 162 159 158 156 149 141 132 122 113 107 101 95 90 84 79 75 69 64 60 57 67 77 74 81 84 53 34 21 355 351 351 343 345 355 359 356 353 354 354 354 357 358 357 355 354 355 358 357 355 352 347 342 337 336 336
173 171 169 167 165 164 162 161 159 156 154 153 148 139 130 122 113 107 99 91 87 83 78 74 68 62 56 47 48 55 65 84 100 85 51 32 2 353 348 341 345 355 356 354 355 358 359 359 360 358 356 354 351 351 355 358 357 354 351 346 340 336 336
172 167 165 165 164 163 162 159 157 154 149 145 142 135 128 122 113 106 98 90 85 81 75 72 67 63 58 47 39 33 40 69 85 74 58 42 19 4 348 342 349 355 356 357 2 5 4 1 359 357 355 354 351 351 353 354 354 353 350 346 341 338 337
170 166 165 166 164 162 161 159 154 150 144 138 134 130 124 119 111 102 97 90 85 81 77 73 68 63 58 50 41 34 37 53 61 48 38 27 30 18 352 345 356 3 5 7 9 9 5 -0 357 355 354 353 352 351 352 353 353 351 347 343 342 341 341
169 168 168 166 164 163 161 156 150 146 141 134 129 125 118 112 105 98 95 90 85 81 76 71 65 61 57 52 44 36 37 45 45 25 6 359 26 27 -0 347 358 9 11 12 11 8 4 359 357 356 354 353 352 352 352 351 350 347 345 344 346 347 346
171 171 171 168 166 163 158 153 148 144 139 133 126 120 114 111 107 100 94 88 81 75 70 64 59 55 52 48 45 39 35 38 39 29 2 330 346 15 5 349 356 7 10 11 10 7 3 360 357 357 356 354 354 353 351 349 348 346 345 346 349 351 351
175 174 173 170 167 163 157 152 148 143 138 133 127 121 115 110 106 99 90 81 74 66 60 57 52 50 46 41 39 38 34 33 33 30 23 1 355 18 26 17 14 15 14 13 9 5 3 1 360 360 359 357 355 353 350 348 348 348 347 348 351 353 353
180 177 174 170 166 161 154 147 143 141 139 136 132 128 121 113 104 94 84 75 67 58 51 50 48 45 43 37 32 33 32 30 30 29 31 35 37 43 46 40 32 24 18 13 8 5 4 4 4 4 2 359 356 352 349 350 351 350 349 351 353 355 354
182 178 174 171 165 157 148 142 139 140 143 141 137 132 124 114 103 89 73 62 58 51 44 44 42 40 40 35 30 31 30 28 30 33 39 48 51 51 47 40 31 22 16 10 6 4 6 7 8 6 3 0 356 353 354 355 354 353 354 355 356 357 356
181 178 175 172 165 155 148 148 151 156 162 161 150 135 119 101 88 79 65 50 43 38 35 38 38 37 36 31 28 32 32 30 31 36 44 51 53 49 43 34 26 18 13 9 5 5 7 9 10 8 5 2 359 358 360 359 357 358 -0 360 359 359 358
182 179 176 173 168 160 157 162 168 170 170 164 148 135 123 103 80 72 66 51 34 21 22 32 34 32 33 30 28 31 33 32 33 38 43 46 47 46 39 30 22 17 13 9 6 6 9 11 11 9 7 4 3 4 4 3 2 3 4 4 3 1 -0
182 180 177 176 172 166 163 165 165 162 154 141 128 122 122 118 103 91 88 76 40 358 359 23 30 27 27 27 27 32 34 33 35 41 44 44 45 43 36 28 22 17 14 10 6 7 10 12 11 11 9 7 7 8 7 6 6 7 7 8 6 3 2